Location: Curupao
(10.4996°N, 66.6442°W)
Time: 11:47:44
(UTC+00:00)

Cosmos 1821 Rocket - Pass Details

Date: 23 May 2024
Orbit: 945 x 1003 km, 82.9° (Epoch: 24 June)

Event Time Altitude Azimuth Distance (km) Brightness Sun altitude
Exits shadow 08:43:08 - 181° (S) 3,655 6.7 -19.0°
Reaches altitude 10° 08:45:37 10° 180° (S) 2,714 6.1 -18.4°
Maximum altitude 08:51:50 82° 93° (E) 973 4.0 -17.1°
Drops below altitude 10° 08:57:57 10° 6° (N) 2,675 6.7 -15.7°
Sets 09:00:25 0° 6° (N) 3,614 7.4 -15.1°
